This demonstration page uses our WeatherBlox Daily Observations layout. Learn more.

Left ArrowRight Arrow

44.8408, -93.29828

Hourly Observations for March 6, 2018

Temp ( °F °C ) Dew Point ( °F °C ) Humidity (%) Winds ( mph kmh ) Pressure ( in mb ) Visibility ( mi km ) Precip ( " mm )
12:46 am 00:46 Cloudy with Light Snow 29 -1.7 27 -2.8 92 92 E 18 30 29.74 1007 2 2 0.01 0.25
12:53 am 00:53 Cloudy with Light Snow 29 -1.7 27 -2.8 92 92 E 17 28 29.70 1006 1 2 0.01 0.25
12:57 am 00:57 Cloudy with Light Snow 29 -1.7 27 -2.8 92 92 E 17 28 29.74 1007 2 2 0.00 0.03
1:05 am 01:05 Cloudy with Light Snow 29 -1.7 27 -2.8 92 92 E 15 24 29.74 1007 2 2 0.00 0.03
1:22 am 01:22 Cloudy with Light Snow 28 -2.2 27 -2.8 96 96 E 15 24 29.74 1007 1 2 0.00 0.03
1:29 am 01:29 Cloudy with Light Snow 28 -2.2 27 -2.8 96 96 E 15 24 29.74 1007 2 2 0.00 0.03
1:43 am 01:43 Cloudy with Light Snow 28 -2.2 27 -2.8 96 96 E 15 24 29.71 1006 1 2 0.01 0.25
1:50 am 01:50 Cloudy with Light Snow 28 -2 27 -3 93 93 E 17 28 29.71 1006 2 2 0.01 0.25
1:53 am 01:53 Cloudy with Light Snow 28 -2.2 27 -2.8 96 96 E 13 20 29.69 1006 2 2 0.01 0.25
2:06 am 02:06 Cloudy with Light Snow 28 -2.2 27 -2.8 96 96 ENE 13 20 29.74 1007 3 5 0.01 0.25
2:40 am 02:40 Cloudy with Light Snow 28 -2.2 27 -2.8 96 96 ENE 17 28 29.71 1006 9 14 0.01 0.25
2:53 am 02:53 Cloudy with Light Snow 29 -1.7 26 -3.3 89 89 ENE 17 28 29.68 1005 5 8 0.01 0.25
3:00 am 03:00 Cloudy with Light Snow 28 -2.2 26 -3.3 92 92 ENE 14 22 29.71 1006 4 6 0.00 0.03
3:53 am 03:53 Cloudy with Light Snow 29 -1.7 27 -2.8 92 92 ENE 15 24 29.69 1005 3 4 0.01 0.25
4:29 am 04:29 Cloudy with Light Snow 29 -1.7 27 -2.8 92 92 ENE 16 26 29.74 1007 3 5 0.01 0.25
4:53 am 04:53 Cloudy with Light Snow 29 -1.7 27 -2.8 92 92 ENE 16 26 29.70 1006 3 5 0.01 0.25
5:53 am 05:53 Cloudy with Light Snow 29 -1.7 27 -2.8 92 92 ENE 15 24 29.72 1007 5 8 0.01 0.25
6:53 am 06:53 Cloudy with Light Snow 29 -1.7 27 -2.8 92 92 NE 15 24 29.74 1007 7 11 0.00 0.03
7:40 am 07:40 Cloudy with Light Snow 29 -1.7 26 -3.3 89 89 NE 17 28 29.80 1009 8 13 0.00 0.03
7:53 am 07:53 Cloudy with Light Snow 30 -1.1 27 -2.8 88 88 NE 16 26 29.77 1008 7 11 0.00 0.03
8:53 am 08:53 Cloudy with Light Snow 30 -1.1 26 -3.3 85 85 NE 16 26 29.79 1009 7 11 0.00 0.03
9:53 am 09:53 Cloudy with Light Snow 29 -1.7 26 -3.3 89 89 NNE 17 28 29.83 1010 8 13 0.01 0.25
10:22 am 10:22 Cloudy with Light Snow 29 -1.7 25 -3.9 85 85 NE 16 26 29.85 1011 1 2 0.00 0.03
10:40 am 10:40 Windy with Snow Likely 30 -1.1 25 -3.9 82 82 NE 20 31 29.88 1012 2 2 0.00 0.03
10:47 am 10:47 Cloudy with Light Snow 30 -1 25 -4 80 80 NE 16 26 29.88 1012 2 3 0.00 0.03
10:53 am 10:53 Cloudy with Light Snow 31 -0.6 26 -3.3 82 82 NE 17 28 29.85 1011 2 3 0.00 0.03
11:30 am 11:30 Mostly Cloudy with Light Snow 31 -0.6 26 -3.3 82 82 NNE 17 28 29.88 1012 7 11 0.00 0.03
11:53 am 11:53 Cloudy with Light Snow 32 0 26 -3.3 79 79 NNE 15 24 29.87 1012 9 14 0.00 0.03
12:53 pm 12:53 Cloudy 33 0.6 24 -4.4 70 70 NNE 15 24 29.89 1012 10 16 0.00 0.03
1:53 pm 13:53 Cloudy 33 0.6 25 -3.9 72 72 N 20 31 29.91 1013 10 16 0.00 0.00
2:11 pm 14:11 Cloudy 33 0.6 25 -3.9 72 72 N 17 28 29.94 1014 10 16 0.00 0.00
2:53 pm 14:53 Cloudy 34 1.1 24 -4.4 67 67 NNE 17 28 29.93 1014 10 16 0.00 0.00
3:53 pm 15:53 Cloudy 32 0 24 -4.4 73 73 N 18 30 29.97 1015 10 16 0.00 0.00
4:15 pm 16:15 Cloudy 32 0 24 -4.4 73 73 N 17 28 30.00 1016 10 16 0.00 0.00
4:53 pm 16:53 Cloudy 32 0 23 -5 69 69 N 13 20 30.00 1016 10 16 0.00 0.00
5:53 pm 17:53 Partly Cloudy 30 -1.1 21 -6.1 69 69 N 12 19 30.03 1017 10 16 0.00 0.00
6:53 pm 18:53 Clear 28 -2.2 20 -6.7 72 72 NNW 10 17 30.06 1018 10 16 0.00 0.00
7:53 pm 19:53 Clear 26 -3.3 18 -7.8 71 71 NW 8 13 30.06 1018 10 16 0.00 0.00
8:53 pm 20:53 Clear 23 -5 17 -8.3 78 78 NW 6 9 30.06 1018 10 16 0.00 0.00
9:53 pm 21:53 Clear 23 -5 16 -8.9 74 74 WNW 5 7 30.05 1018 10 16 0.00 0.00
10:53 pm 22:53 Clear 25 -3.9 17 -8.3 72 72 NNW 12 19 30.05 1018 10 16 0.00 0.00
11:53 pm 23:53 Clear 24 -4.4 16 -8.9 71 71 NNW 10 17 30.05 1018 10 16 0.00 0.00

Powered by AerisWeather